Theta_e
329 330 331 332 334 335 337 337 335 334 333 335 335 334 335 336 337 336 339 340 338 335 333 335 334 333 335 336 337 337 339 341 339 342 341 340 341 343 344 350 349 350 348 349 345 346 345 344 344 345 346 344 344 343 342 342 342 341 340 339 338 336 336 339 339 338 334 331 334 335 336 339 338 339 338 339 339 338 340 339 339 339 337 336 337
329 329 331 332 333 334 336 335 334 330 330 333 332 333 334 335 335 336 337 337 338 336 335 336 336 336 334 335 336 338 337 335 336 336 342 344 346 347 345 343 345 346 344 345 345 344 343 345 343 343 343 342 342 340 342 342 340 339 339 336 338 336 334 337 338 336 331 329 327 328 329 334 337 337 338 339 339 339 339 339 338 338 338 337 339
327 328 329 329 331 332 333 333 332 331 332 332 332 332 333 335 335 335 337 336 337 338 337 336 337 338 338 338 336 337 340 339 341 340 342 343 343 345 345 345 342 341 341 341 341 341 341 341 341 343 342 342 341 342 340 339 338 338 337 334 333 336 335 338 339 339 330 331 330 327 323 322 331 335 338 336 338 338 338 338 339 339 339 339 339
325 326 327 329 330 330 331 331 331 332 331 333 333 332 333 334 336 335 335 337 338 337 337 338 337 338 340 340 338 337 334 338 338 343 341 342 342 342 341 341 340 339 339 338 339 339 339 338 339 339 338 338 337 335 336 335 336 336 335 335 334 330 331 332 336 339 336 331 322 323 323 323 318 326 326 330 335 336 338 339 339 338 338 338 337
326 326 327 327 328 328 329 330 331 330 332 333 334 334 334 334 336 336 334 335 337 338 336 337 338 336 338 337 339 336 336 335 335 335 339 339 338 338 338 338 337 337 336 335 335 336 337 337 336 337 337 336 336 335 333 333 333 333 333 333 332 331 329 331 333 335 335 338 331 324 322 319 319 322 325 325 333 332 336 338 338 338 337 336 335
326 326 326 327 327 328 329 331 331 331 332 334 336 335 334 334 333 334 335 336 335 337 338 337 335 334 331 330 327 328 329 329 331 333 335 335 334 336 336 335 336 335 333 333 334 334 334 334 334 333 334 333 334 331 329 329 328 329 331 331 330 331 329 328 327 331 332 334 336 332 327 320 321 324 323 316 327 330 332 333 333 338 338 336 334
326 327 327 327 327 328 330 331 331 331 333 335 335 334 334 335 334 335 335 337 336 337 338 337 332 334 333 331 330 328 329 332 337 339 336 335 337 335 334 335 333 332 331 331 331 332 333 332 331 330 329 328 330 328 327 326 327 327 329 329 328 329 329 325 324 325 329 331 331 331 331 331 331 325 320 323 319 324 328 329 329 332 336 335 335
325 325 326 327 328 328 328 329 330 331 332 333 334 334 333 333 334 335 335 336 336 337 334 334 334 334 331 329 331 331 333 334 335 335 337 335 333 333 333 332 331 330 329 328 328 328 329 329 328 327 326 326 326 325 325 325 326 326 327 328 327 326 326 325 323 325 324 324 327 326 326 328 327 327 327 323 321 317 320 326 329 329 331 334 335
326 325 326 327 327 328 328 328 329 330 331 329 330 331 333 333 333 336 335 335 336 334 334 335 334 332 333 331 332 334 334 333 333 333 333 334 331 332 331 330 329 328 326 326 326 326 327 326 326 325 324 324 324 324 324 324 323 324 324 325 324 324 324 326 324 323 324 323 322 322 323 322 322 323 324 325 321 318 318 319 321 326 327 328 331
326 327 327 327 328 328 329 329 330 331 331 330 330 331 330 330 331 331 330 331 333 335 334 334 336 336 335 334 332 333 333 333 332 331 331 332 329 329 329 329 327 325 324 324 324 324 324 323 323 323 322 323 324 323 322 322 322 322 324 324 324 322 323 323 322 324 323 322 321 321 319 318 318 318 319 319 320 320 317 317 319 319 319 323 327
325 326 327 327 328 329 329 328 328 330 331 330 330 329 329 329 329 328 329 330 331 331 332 332 335 335 334 334 333 331 331 331 329 328 329 329 327 327 326 326 324 322 322 322 322 321 321 321 321 321 322 322 321 321 320 320 321 322 324 322 321 321 321 320 321 321 320 319 319 318 317 317 316 316 316 318 317 316 315 315 317 318 318 317 322
325 325 325 326 326 327 327 326 327 328 329 329 329 328 327 328 328 327 328 328 329 329 330 329 330 331 331 330 329 329 329 327 327 325 326 325 326 325 325 323 320 320 320 319 320 319 320 321 322 321 320 320 319 320 320 319 320 321 321 320 320 319 320 319 320 318 318 317 317 317 317 317 317 317 318 319 317 315 315 313 314 315 315 316 320
325 324 324 324 324 324 325 325 326 326 327 327 327 327 327 327 326 325 324 326 326 327 327 327 327 327 328 327 327 328 327 327 326 324 324 323 323 322 321 318 318 316 316 316 318 319 321 320 319 318 318 318 318 318 319 319 319 319 319 317 317 316 317 318 318 317 317 315 315 317 316 316 317 318 319 317 317 316 315 311 313 314 311 313 316
324 324 324 324 324 324 324 324 324 325 326 326 326 326 326 325 325 324 323 324 324 324 324 324 324 324 325 325 325 324 323 323 322 321 321 321 321 320 319 317 315 315 315 316 318 322 319 318 318 317 317 317 317 317 317 318 318 317 317 315 315 315 317 317 317 316 316 316 316 314 314 315 316 317 316 315 314 313 312 311 311 311 312 311 313
324 323 324 324 324 324 323 324 324 324 325 325 325 324 324 324 323 322 321 322 322 322 322 321 321 322 323 323 322 322 321 320 319 319 319 318 318 317 317 317 315 314 315 318 320 320 318 317 316 315 315 315 316 316 316 316 317 316 316 314 315 315 315 316 315 315 314 314 314 313 314 313 314 313 313 313 313 313 312 312 311 307 307 308 308
323 323 323 323 324 323 323 324 324 324 324 324 324 324 324 323 323 322 320 320 320 319 319 319 319 320 320 320 320 320 320 320 319 319 318 318 317 316 316 316 316 316 319 319 317 317 316 316 315 314 314 314 314 314 314 314 315 315 315 314 312 315 314 314 313 313 313 313 313 313 312 311 313 312 312 312 312 312 312 312 311 309 305 302 306
322 322 322 323 324 323 323 323 323 323 323 323 323 324 323 322 321 320 319 319 318 318 318 317 318 318 318 318 318 318 318 317 317 317 316 317 316 316 315 315 317 318 318 317 316 315 315 314 313 313 312 312 312 312 312 312 313 313 313 312 311 313 314 313 313 312 312 312 311 312 312 312 311 311 311 311 311 311 311 311 310 308 307 304 301
323 323 323 323 323 322 323 322 322 323 323 323 323 323 322 322 320 318 317 316 316 316 316 316 316 316 317 317 317 317 317 317 317 316 316 315 315 316 316 315 315 317 316 316 315 314 313 314 312 311 311 311 311 311 311 311 312 312 312 311 311 312 312 311 312 311 311 311 311 311 310 310 310 310 310 310 310 310 309 308 308 308 307 304 303
322 322 322 321 321 321 322 321 322 323 323 323 323 323 321 321 320 318 317 316 316 316 316 316 316 316 316 315 316 316 316 315 315 315 315 314 313 314 314 315 316 315 314 314 312 311 311 311 311 309 309 309 310 310 310 310 311 310 311 310 310 310 310 309 310 310 310 310 309 308 309 308 308 308 308 308 308 307 306 305 305 306 305 304 303
321 321 320 320 320 321 321 321 321 321 320 321 321 320 319 319 318 317 317 316 316 315 315 314 315 315 315 315 315 314 314 314 315 315 314 313 312 313 313 313 314 314 313 312 310 310 309 308 308 308 307 307 307 308 309 309 310 310 309 309 309 309 308 307 308 308 309 308 306 306 307 307 307 306 305 305 305 305 304 303 303 303 303 303 303
321 320 320 320 319 319 320 320 320 320 320 320 320 319 318 317 316 315 314 314 314 314 313 313 313 313 314 313 314 314 314 314 314 314 314 313 313 313 312 313 313 312 312 311 309 308 307 307 306 306 305 305 306 306 307 308 308 308 309 308 308 307 307 306 307 306 307 307 306 305 305 305 305 304 303 303 303 302 302 302 303 302 301 302 301
320 320 319 318 318 319 319 319 319 318 318 317 317 317 317 316 315 314 314 313 312 312 312 312 313 313 313 313 314 314 314 314 314 314 313 312 312 313 313 312 311 310 310 309 309 309 307 306 305 304 304 304 304 304 305 306 306 307 307 308 308 306 306 305 306 304 305 306 305 304 304 304 304 302 302 301 301 301 300 300 300 300 299 300 301
319 319 318 318 318 318 318 317 317 317 316 316 316 316 316 315 314 313 313 312 312 312 312 312 312 312 312 313 313 313 313 313 312 312 312 312 312 311 311 310 309 309 310 309 308 307 307 305 304 304 303 303 302 303 304 305 306 306 306 306 307 306 305 305 304 304 303 304 303 303 302 303 303 301 301 300 300 299 300 299 298 299 298 298 299
319 318 318 318 318 318 317 316 315 315 316 316 316 315 316 315 314 313 312 311 312 311 311 311 311 312 312 312 312 312 312 312 311 311 311 310 310 310 311 310 309 308 307 308 308 306 305 305 303 302 302 301 301 301 302 303 304 306 306 306 305 305 305 304 304 303 303 303 302 302 302 301 301 300 299 299 299 299 299 298 298 298 298 297 298
317 317 317 317 317 316 315 315 315 315 315 316 315 315 313 313 313 311 312 312 311 311 310 310 310 311 311 311 311 311 310 311 310 311 310 310 310 310 309 308 308 308 308 308 307 306 304 303 303 301 300 300 300 300 300 301 303 305 306 306 305 305 305 304 304 303 304 302 302 301 301 301 300 299 298 298 298 298 298 298 297 297 297 297 297
316 316 316 316 316 316 315 315 315 315 315 315 315 314 313 312 312 312 311 311 310 311 310 310 310 310 310 310 310 310 310 310 310 310 309 309 309 309 309 309 307 307 307 307 306 305 303 302 301 300 300 299 299 298 298 298 300 302 304 306 306 305 305 304 304 303 303 302 302 301 301 300 300 298 297 297 298 297 297 296 296 296 296 296 296
315 315 316 316 315 315 314 315 315 315 314 314 313 313 312 311 311 311 311 311 310 310 310 310 310 310 309 309 310 309 309 309 309 309 309 309 308 309 308 307 308 307 306 306 305 304 304 302 301 300 299 298 298 297 297 297 298 300 302 304 306 305 305 304 303 303 302 302 302 302 301 300 299 299 298 297 297 297 296 295 296 295 296 295 295
315 315 315 314 314 314 314 315 315 314 314 314 313 313 312 311 310 310 310 310 311 310 309 309 309 309 308 309 309 309 309 309 309 308 308 308 308 308 308 308 308 307 307 306 305 304 304 303 301 300 299 298 297 296 295 295 296 298 300 302 305 305 304 303 303 302 303 302 301 301 301 300 300 299 298 298 297 295 295 295 295 295 295 295 294
314 314 314 314 313 313 314 314 314 314 314 313 312 312 311 311 310 310 310 309 310 310 309 309 309 308 307 307 307 308 308 308 307 307 307 307 307 307 307 307 307 307 308 306 306 304 303 301 301 300 299 297 296 295 295 294 294 296 297 301 302 304 303 302 302 301 301 301 301 301 301 300 301 302 301 299 298 297 295 294 294 295 295 295 294
313 313 314 313 313 313 314 314 314 314 313 312 311 310 310 309 309 310 309 310 310 309 308 308 307 306 307 306 306 307 306 307 307 306 307 307 307 307 307 306 306 306 306 306 305 304 302 300 299 299 298 298 295 295 294 293 294 294 296 299 301 304 303 303 301 301 301 301 300 300 302 303 303 302 300 297 295 296 297 296 295 295 295 294 294
312 312 312 313 313 312 312 313 313 313 312 311 311 310 310 310 309 309 309 309 310 309 308 306 305 305 305 305 305 305 305 305 306 306 306 305 305 306 305 305 305 306 306 306 306 303 301 300 298 298 297 297 295 294 293 292 292 293 295 298 299 304 304 303 301 301 299 300 299 299 301 300 300 300 298 296 295 295 294 294 295 296 297 296 295
311 312 312 311 311 312 312 313 313 313 313 312 311 310 310 309 309 309 309 310 309 308 306 305 305 305 304 304 304 304 304 304 304 304 304 304 305 304 304 305 305 305 305 306 305 304 303 302 300 297 296 296 295 294 291 292 292 292 293 295 300 304 304 302 302 301 300 300 299 299 299 300 299 299 298 296 295 295 294 295 295 295 295 295 295
311 311 310 310 310 311 313 313 314 313 312 312 311 310 309 309 309 310 310 309 308 306 304 304 304 304 303 305 304 303 302 302 302 302 303 304 304 304 303 303 303 305 305 304 304 305 304 303 301 297 296 295 294 293 291 292 292 291 292 294 301 305 303 303 301 302 301 301 298 299 298 299 298 300 299 296 294 294 295 296 297 297 297 296 294
311 311 310 311 311 312 313 313 313 313 313 313 312 310 310 311 310 310 309 308 306 304 304 304 303 303 303 303 302 301 301 301 302 303 304 304 304 303 304 304 304 304 303 303 304 304 304 304 301 298 296 295 294 293 291 292 292 291 291 293 303 305 304 304 301 301 302 300 298 298 297 296 297 297 297 295 294 293 293 296 297 297 297 297 296
311 311 310 311 312 312 312 313 312 313 313 312 311 311 310 310 310 309 308 306 304 304 303 303 302 302 302 301 300 301 301 303 303 304 304 303 304 304 304 305 305 304 303 302 302 303 304 304 302 299 296 295 295 292 291 291 291 291 292 296 304 305 304 304 302 302 301 300 299 298 297 295 296 296 297 294 293 292 293 295 297 297 297 296 297
311 311 311 312 312 312 312 312 313 312 312 311 310 310 309 309 309 308 307 305 304 302 301 301 301 300 300 301 302 302 303 303 302 302 302 302 303 303 303 304 304 303 304 303 303 303 303 303 302 300 297 296 295 291 291 291 291 291 292 300 301 302 301 302 302 302 300 299 298 297 297 295 295 295 296 292 292 292 292 294 295 296 296 296 296
312 313 312 312 312 312 312 312 312 312 311 310 310 310 309 308 307 306 304 303 302 300 300 301 301 300 301 302 301 302 302 302 302 302 302 302 302 303 304 305 303 303 302 302 302 301 301 301 302 301 298 297 296 293 291 292 291 291 293 299 299 299 300 300 300 301 301 300 299 299 296 295 295 295 295 291 291 292 293 294 294 295 295 295 295
313 313 312 312 313 313 313 312 311 311 311 310 310 309 308 307 306 304 302 301 300 300 301 301 301 301 301 302 302 301 301 302 302 301 302 302 303 303 303 304 303 302 302 302 302 300 299 299 299 300 302 299 296 294 292 292 292 291 294 297 297 297 297 298 298 300 301 298 299 302 300 295 295 295 293 291 291 293 292 293 294 294 293 293 294
312 311 311 312 312 312 312 312 311 310 310 311 310 309 307 306 304 302 301 300 301 301 301 301 301 301 302 302 302 302 302 302 301 302 303 302 302 302 303 304 303 303 303 303 303 302 301 301 301 301 301 302 299 296 292 291 292 292 294 296 297 295 294 295 296 297 299 300 300 300 299 296 295 294 291 291 290 292 292 293 294 294 293 292 293
312 313 313 312 311 310 310 310 309 309 310 309 309 308 306 304 302 302 302 301 301 302 301 302 302 302 302 302 303 303 303 302 302 303 304 304 304 304 305 304 304 302 301 301 302 302 303 302 302 302 302 302 300 297 295 292 292 292 292 295 296 294 293 294 295 297 297 297 298 297 298 293 292 291 291 291 290 291 291 293 295 293 292 292 294
311 311 308 311 311 310 309 309 309 309 309 309 307 306 303 302 302 302 301 301 302 302 302 302 302 302 302 302 302 303 303 303 303 303 304 304 304 303 304 304 303 303 303 303 303 302 302 303 304 304 303 302 302 300 297 292 292 292 291 292 295 294 293 293 294 295 296 296 296 296 297 295 292 292 291 291 291 290 291 293 295 293 293 293 292
311 309 309 310 309 309 309 309 309 309 307 307 305 303 302 303 302 302 302 303 303 302 302 302 302 302 302 302 303 303 304 304 304 304 304 304 305 304 304 304 303 304 305 305 304 303 302 302 303 303 303 301 299 300 299 293 292 292 292 291 295 295 295 294 294 294 296 296 296 296 296 296 293 292 291 291 291 291 290 295 295 292 290 291 293
309 309 310 309 308 308 308 308 307 307 306 306 305 303 303 303 302 303 303 303 302 302 302 302 301 302 302 302 303 304 304 304 304 304 304 304 306 305 305 304 304 304 303 303 304 303 303 302 302 302 302 301 299 299 295 296 292 291 291 291 291 292 291 296 294 294 295 295 296 296 297 296 292 291 291 290 291 290 292 295 292 290 291 290 293
310 310 309 309 308 308 307 307 307 307 306 306 305 303 302 302 302 303 303 303 303 302 302 301 302 302 302 302 303 304 305 305 304 304 304 304 304 304 305 305 304 303 302 302 302 302 302 302 300 300 299 299 300 299 294 293 295 291 291 291 290 290 290 293 295 296 295 295 295 295 295 292 291 291 290 290 291 292 292 291 291 291 290 292 294
308 308 308 308 308 307 306 305 306 306 307 306 305 303 303 302 303 303 302 302 302 302 302 302 301 302 302 303 304 304 304 304 305 305 303 303 304 305 303 305 306 305 303 300 300 302 302 301 301 299 299 298 299 299 299 295 292 292 291 291 290 290 291 291 295 297 296 295 293 291 291 292 291 291 291 292 293 294 291 292 291 291 295 294 293
308 308 307 309 308 306 305 304 305 306 306 306 305 304 303 303 303 303 302 302 302 302 301 301 301 302 302 302 303 303 303 304 305 304 304 304 304 303 303 304 303 303 302 302 301 299 299 300 301 300 298 297 297 297 296 296 295 294 293 292 291 291 293 293 294 295 292 292 292 292 292 292 293 294 295 294 294 295 291 292 292 294 295 293 293
308 308 307 308 307 305 304 304 304 305 305 305 305 304 304 303 303 303 302 302 302 302 301 301 301 301 301 302 303 302 303 304 305 304 304 304 306 306 304 302 302 301 300 302 302 300 298 298 299 300 298 297 295 295 295 294 294 293 293 293 294 295 294 294 295 295 294 294 294 294 293 292 292 292 292 292 293 294 294 294 294 294 294 293 293
308 307 308 307 306 304 304 304 303 304 305 304 304 304 303 303 303 302 302 303 302 301 300 300 300 300 301 302 302 296 300 302 302 302 302 303 303 304 301 299 298 299 301 301 299 301 300 298 298 298 298 296 294 293 293 293 293 293 293 293 293 294 294 294 294 294 293 293 294 293 295 297 296 296 295 294 293 294 294 293 294 294 293 293 294
307 306 306 305 304 304 304 303 303 304 304 304 304 304 303 303 302 303 303 302 301 300 301 300 300 301 301 302 302 301 301 302 302 302 299 299 303 300 298 297 298 297 297 298 300 299 299 301 298 296 297 296 294 293 294 292 293 290 289 292 292 292 292 292 293 290 290 292 294 295 294 293 293 291 291 292 292 292 292 293 294 294 293 293 293
307 307 306 305 304 304 303 303 303 304 304 304 304 303 303 302 302 303 303 302 301 301 301 300 301 301 301 301 301 300 302 302 301 300 298 297 290 292 296 296 296 288 286 290 292 296 297 297 301 298 297 296 295 296 291 289 289 289 289 289 289 289 289 290 290 289 290 291 292 291 291 290 292 291 290 289 290 290 290 291 292 291 292 292 291
307 305 304 304 303 303 303 303 303 304 304 304 303 303 303 302 303 303 302 301 301 300 300 300 301 301 300 300 300 301 302 302 301 299 298 296 295 296 290 291 293 291 289 287 286 285 283 285 294 299 296 291 292 291 289 290 289 289 289 289 289 289 289 289 289 288 289 288 289 289 289 290 289 291 288 288 289 289 289 289 291 291 292 291 290
Wind_Speed
6 7 6 11 12 10 12 12 12 12 11 7 7 8 6 6 5 7 5 6 6 5 3 4 6 3 2 2 1 0 2 1 2 1 4 4 6 6 5 1 2 1 2 4 3 5 4 3 3 2 2 2 1 1 1 2 2 3 4 4 4 4 4 3 4 3 5 5 4 5 5 6 8 6 6 5 3 4 4 4 5 5 4 4 4
8 8 8 9 8 8 7 11 15 15 11 8 7 7 7 7 7 7 5 5 7 4 4 4 4 4 2 2 3 2 2 1 0 4 2 2 1 3 5 3 2 2 3 5 6 4 3 3 2 3 3 3 2 3 3 2 2 4 4 5 5 4 4 4 4 2 2 4 7 6 6 5 7 4 2 2 4 5 4 4 4 4 4 4 3
10 10 8 8 8 9 7 4 8 15 14 10 8 8 6 6 6 5 4 5 6 4 2 4 5 3 3 1 1 2 1 4 3 3 4 3 3 2 1 3 4 4 5 6 5 6 5 5 4 3 2 2 2 1 3 5 5 4 4 3 5 4 4 3 2 1 3 5 6 6 4 6 2 2 1 3 6 5 4 4 5 5 5 3 4
9 8 8 8 9 9 7 8 10 13 13 10 8 9 7 6 6 5 4 3 4 6 6 4 2 2 2 3 1 1 1 4 2 2 5 4 3 3 5 5 6 7 7 7 6 6 6 6 5 5 6 7 7 6 6 6 5 5 6 6 5 7 6 6 6 1 0 3 5 4 5 4 5 1 5 5 6 6 6 6 4 5 4 3 2
9 9 8 9 10 8 8 9 9 10 10 10 8 7 7 8 7 6 5 5 6 7 6 3 4 3 3 2 3 4 4 5 3 1 2 4 5 5 5 6 7 7 7 8 8 7 7 7 7 6 6 6 5 6 7 7 7 6 7 7 8 7 8 7 6 8 5 1 2 4 3 2 3 5 9 7 2 4 4 5 4 4 5 4 4
11 10 9 9 9 10 10 10 10 10 10 9 8 9 9 6 5 5 5 5 5 5 5 5 4 4 4 4 3 3 2 3 4 3 4 4 5 5 7 7 7 7 7 8 8 7 7 7 7 7 6 7 6 7 7 7 8 9 9 8 9 9 7 7 9 8 10 7 4 4 5 3 6 6 6 5 7 4 6 3 3 5 5 4 4
12 11 11 11 11 11 10 11 11 11 11 10 10 10 9 6 5 5 6 5 3 4 5 5 5 2 3 2 1 3 5 3 2 2 4 5 4 6 6 5 7 7 8 8 7 7 6 6 7 8 8 8 7 7 7 7 7 8 8 8 8 8 8 8 9 9 9 7 9 8 5 3 3 5 4 7 8 7 3 6 7 5 2 4 5
13 12 12 12 12 12 13 12 11 12 12 12 11 10 10 8 7 7 5 5 4 5 6 5 5 4 5 4 6 7 5 3 4 5 3 5 6 5 4 5 6 8 8 8 8 8 7 6 6 6 6 6 6 6 6 6 6 6 6 7 6 7 8 7 8 8 9 8 9 8 8 7 9 8 5 5 6 8 12 6 4 8 7 4 6
13 13 13 13 12 12 12 13 12 11 10 14 12 10 9 9 9 9 7 7 6 7 5 4 3 3 5 6 4 3 4 3 3 4 4 5 6 4 4 5 7 9 8 8 8 8 8 7 7 8 7 6 6 5 5 7 8 7 8 8 7 7 6 6 7 8 8 8 10 9 8 8 8 7 8 8 7 9 8 9 11 8 7 6 6
12 13 13 13 12 13 12 13 13 10 9 14 12 10 9 9 9 10 9 7 6 6 7 7 4 4 4 4 4 3 2 4 4 4 4 3 4 4 4 4 6 7 7 8 8 8 8 9 8 8 7 7 7 7 6 7 6 6 6 7 8 8 6 8 7 7 8 8 8 8 9 9 9 8 7 9 9 7 8 10 10 12 12 9 7
12 12 12 13 12 13 12 14 14 11 9 11 11 10 9 9 10 11 9 7 7 6 6 7 4 4 4 4 5 5 4 3 5 4 3 2 4 4 4 5 6 6 6 7 7 8 8 7 6 6 6 6 7 6 6 6 5 5 5 7 6 7 7 7 7 8 7 8 9 8 8 8 8 9 9 9 9 9 10 10 10 10 10 12 10
14 12 13 13 13 11 13 15 13 11 10 11 10 9 10 9 10 11 10 9 7 7 7 7 5 5 6 5 5 4 4 3 3 3 3 3 3 4 5 6 6 7 7 6 6 6 4 3 3 4 5 5 5 5 5 6 6 6 6 6 6 7 5 5 4 6 7 6 7 6 6 7 7 7 7 8 8 8 9 10 10 10 11 9 9
15 14 13 12 12 12 12 13 12 10 9 11 11 10 10 10 11 11 10 9 8 7 6 6 6 5 4 5 4 3 3 3 3 4 3 3 4 5 6 6 6 6 5 5 5 4 2 3 4 6 6 6 6 6 5 6 6 5 6 7 6 7 6 5 5 6 6 7 6 6 6 6 6 6 7 7 7 7 8 8 9 9 10 11 10
15 13 12 12 12 11 12 12 11 10 10 10 10 9 9 10 11 11 10 8 7 7 6 6 6 5 5 4 4 5 5 5 5 5 5 4 4 5 6 6 6 5 5 4 2 2 3 5 6 6 6 5 6 5 6 6 5 6 6 7 6 5 5 6 6 6 6 7 6 6 7 7 7 8 9 8 9 9 9 9 10 9 9 10 9
13 14 14 15 14 13 11 11 11 10 11 10 9 10 10 10 11 12 11 9 9 8 7 7 6 6 5 5 5 5 5 5 6 5 5 5 5 7 5 5 5 5 3 1 2 3 4 7 6 5 6 5 5 5 6 5 5 6 5 5 5 4 5 6 6 6 7 8 7 7 6 7 7 8 8 9 9 9 9 9 9 11 11 9 10
15 15 15 16 13 12 11 11 10 11 11 9 10 9 9 10 11 12 12 11 9 9 8 7 6 6 7 7 6 6 4 4 4 5 5 5 5 5 5 5 4 3 2 2 4 5 6 6 6 6 6 6 5 5 5 4 5 5 4 5 6 5 4 7 5 5 6 6 6 6 6 6 6 7 7 7 8 8 8 8 8 9 11 12 10
14 16 16 16 13 13 12 11 10 10 9 10 10 9 10 10 11 12 12 10 9 8 8 8 6 7 7 7 7 6 5 5 5 7 6 5 4 5 5 5 3 2 2 4 6 5 4 5 5 5 6 6 6 6 6 6 5 5 5 6 6 5 5 6 6 6 6 5 5 5 3 4 5 5 5 6 6 6 7 8 8 9 9 10 11
16 16 15 15 14 14 11 11 11 10 10 10 11 11 10 10 11 12 11 12 10 9 8 7 8 8 7 7 6 4 3 5 5 6 6 5 5 4 3 3 3 2 4 5 4 5 5 6 5 6 5 6 6 6 6 7 6 6 6 6 6 6 5 5 5 5 5 4 5 5 5 6 8 7 7 8 7 7 8 8 8 9 9 10 10
14 15 14 12 12 12 12 13 14 12 11 10 9 11 12 11 10 11 12 11 10 8 8 8 8 6 6 7 6 4 5 5 5 5 5 6 5 4 4 4 4 6 5 4 5 5 5 5 5 6 6 7 7 7 6 6 6 5 6 5 6 6 5 5 4 5 5 6 7 6 6 6 7 7 8 8 9 9 10 10 10 9 9 9 10
14 14 13 12 13 13 13 13 15 14 13 11 9 12 13 11 11 11 11 11 11 9 8 8 6 6 6 7 7 7 7 6 6 6 6 6 6 6 7 6 5 4 5 5 6 6 6 6 7 6 7 7 7 7 7 7 6 5 5 5 6 6 6 6 6 6 6 6 7 7 7 7 8 8 9 9 9 10 10 10 9 10 10 10 10
14 14 15 14 14 13 13 12 13 13 12 9 7 13 13 12 12 12 12 12 11 9 9 8 7 6 7 7 6 7 7 7 7 6 5 6 6 6 6 5 5 5 5 6 6 7 7 7 8 8 8 8 8 8 7 6 6 6 5 6 7 7 7 7 6 7 7 6 7 7 10 11 11 10 9 9 10 11 11 9 9 9 9 9 10
15 14 15 15 14 14 14 13 12 13 13 13 10 9 11 13 13 11 11 11 11 10 10 9 8 7 7 6 6 6 5 6 6 6 7 7 7 5 5 5 6 6 6 7 7 5 7 8 8 9 8 9 8 8 8 6 7 6 6 5 6 7 7 7 5 7 7 7 8 10 11 10 10 10 10 11 11 11 12 11 11 10 11 11 10
16 15 15 15 15 15 16 16 16 15 14 14 13 11 11 12 12 11 11 11 11 11 10 8 8 8 7 6 6 6 7 7 7 6 7 6 5 6 6 6 6 6 5 6 6 7 8 8 9 9 9 9 10 9 8 7 6 6 6 5 6 6 6 6 7 8 8 8 9 8 9 9 8 9 9 9 10 11 11 12 12 10 11 11 12
14 13 13 14 15 15 15 16 16 14 13 14 12 11 10 11 12 11 12 13 11 10 10 10 9 9 8 7 7 7 7 7 7 6 7 6 6 6 6 6 6 5 7 6 7 8 8 9 9 10 10 9 10 9 8 8 7 7 5 6 6 5 5 6 7 8 7 7 7 7 8 9 9 9 10 9 9 10 10 10 11 11 11 12 11
15 15 17 16 16 16 16 16 15 14 14 11 13 12 13 11 10 11 11 11 11 9 10 10 9 9 8 8 8 8 8 7 6 6 6 6 6 5 6 7 6 6 6 5 7 8 8 9 9 10 10 10 10 10 9 9 8 7 7 5 6 5 5 7 7 7 7 6 7 7 9 9 9 10 10 10 10 12 11 10 11 12 12 11 11
17 16 16 17 15 15 15 15 14 14 14 13 11 11 12 12 11 9 10 10 10 9 9 9 8 8 8 9 8 8 8 7 7 6 6 6 6 6 6 6 7 7 7 7 8 7 8 9 10 10 10 10 10 9 10 9 9 8 9 5 5 5 6 7 6 6 6 7 7 7 9 10 10 10 10 10 10 12 12 13 14 13 12 12 13
17 16 14 14 14 16 16 14 13 14 13 12 13 13 12 12 12 11 11 10 10 9 9 8 8 8 9 8 7 7 7 7 6 6 6 6 6 6 7 7 6 7 7 7 8 8 8 9 9 9 10 10 10 9 9 9 9 9 9 9 5 6 5 4 5 6 7 7 8 8 9 9 8 8 9 10 10 11 10 13 13 13 12 12 13
14 15 17 16 16 15 15 14 15 14 14 13 13 12 13 12 12 11 11 9 7 8 9 9 9 8 8 8 7 7 7 6 6 6 7 6 7 6 6 6 6 6 7 7 8 8 7 8 8 8 9 8 8 8 8 8 8 8 8 9 7 5 5 6 5 5 6 7 8 8 8 8 7 8 9 8 9 10 10 12 12 12 12 13 12
16 17 16 17 17 15 15 14 14 14 14 14 13 13 12 11 11 11 10 10 9 9 9 9 9 8 7 8 7 6 6 7 7 7 7 6 6 6 6 6 6 6 5 7 8 9 9 9 9 8 9 9 8 8 7 7 7 8 7 8 8 4 5 4 4 5 5 6 7 7 6 7 9 14 11 11 15 14 9 11 12 12 13 12 12
15 15 14 15 17 16 15 14 14 15 16 15 14 13 13 12 12 11 11 10 9 8 10 9 9 8 8 8 8 6 7 7 7 7 7 6 6 6 7 7 7 6 6 6 7 8 9 9 9 9 8 7 7 6 10 12 8 6 6 6 7 4 5 3 4 4 4 5 7 6 6 13 11 13 13 15 15 17 15 11 10 10 11 10 10
13 13 14 15 16 17 17 16 15 15 14 13 13 13 13 12 11 11 11 10 10 11 10 9 10 9 9 8 7 8 7 8 7 7 7 8 8 7 7 8 7 6 5 6 6 8 8 9 9 8 7 7 6 8 15 14 13 12 6 6 6 3 3 3 3 3 4 4 5 4 2 7 9 9 9 13 15 18 17 15 15 15 12 11 9
14 15 16 15 15 15 16 16 15 15 14 13 12 13 13 12 12 11 10 11 10 10 10 9 9 9 9 9 8 8 8 8 8 8 8 8 7 7 7 7 6 6 6 5 6 6 7 7 7 7 8 7 7 11 15 15 15 16 10 6 6 2 3 3 3 3 3 3 4 4 4 6 6 7 7 9 12 16 17 17 16 15 14 12 10
17 16 17 16 16 16 15 13 13 13 12 13 14 13 12 12 12 11 10 10 10 9 10 10 10 9 9 8 9 9 9 8 8 8 7 7 7 8 7 7 7 6 5 6 5 4 5 6 7 8 8 8 7 12 14 15 15 15 15 9 5 3 3 3 3 2 3 3 4 4 5 5 5 11 8 8 10 11 14 16 16 15 14 16 15
17 17 17 15 13 13 13 12 13 12 11 11 13 12 12 10 11 12 11 11 10 10 9 10 9 9 9 9 9 9 9 8 7 7 6 7 7 7 6 5 6 6 6 5 5 4 3 5 7 7 7 7 8 11 14 16 16 17 16 12 4 2 2 2 4 4 3 5 5 6 6 5 5 5 5 7 9 9 11 10 10 10 10 13 14
18 18 17 16 16 16 15 14 13 12 10 11 12 12 11 11 11 11 11 11 11 10 10 9 9 9 9 9 10 9 9 8 7 7 6 7 6 5 5 4 4 5 5 6 5 4 3 5 7 7 6 7 7 12 14 16 17 18 19 13 2 3 2 2 3 3 3 6 6 6 4 5 6 6 6 8 8 8 9 9 10 9 9 9 9
16 18 16 16 16 15 15 13 11 12 10 11 12 12 12 11 12 12 10 10 11 11 10 10 10 9 9 9 9 8 8 8 8 7 7 7 6 6 5 5 5 5 5 5 5 3 3 4 6 6 5 5 6 11 13 15 16 17 17 8 5 4 4 3 3 3 5 5 5 3 3 6 7 7 10 13 9 7 7 9 11 10 10 10 8
12 13 16 15 14 15 13 13 13 12 11 10 12 12 12 13 14 12 12 11 11 11 11 10 10 10 9 9 9 9 8 8 8 8 7 6 6 5 5 4 5 5 5 5 4 4 4 4 4 5 5 3 5 8 11 12 14 16 13 7 6 6 5 7 8 4 5 4 3 2 5 7 8 8 13 13 12 9 7 8 10 10 10 10 10
14 14 15 14 13 12 13 14 14 13 11 11 11 13 13 12 12 12 13 12 12 12 11 10 10 10 9 9 8 9 8 8 7 8 7 5 4 4 5 4 4 4 5 5 5 5 5 4 4 3 2 3 3 5 9 10 12 14 12 7 6 6 7 7 8 9 2 5 4 11 8 8 9 10 15 14 14 9 7 8 9 10 12 12 12
15 17 15 13 13 13 15 14 14 14 14 12 13 14 14 13 12 13 12 12 12 11 11 10 10 10 9 9 8 8 8 8 8 7 5 5 5 5 4 4 4 4 4 4 4 4 4 4 3 3 2 3 5 4 6 7 9 10 10 7 6 7 7 7 8 8 6 2 1 4 10 11 10 12 17 15 15 11 6 7 8 9 11 12 12
18 15 14 15 15 15 14 14 15 14 15 16 15 14 13 13 13 12 12 12 12 11 11 10 10 9 8 8 7 8 7 8 7 6 5 4 3 3 3 4 4 4 5 4 3 3 3 3 4 3 3 3 4 3 4 6 6 7 9 7 5 6 7 7 7 8 6 5 4 5 5 10 13 14 17 17 15 15 8 7 6 7 9 11 10
17 16 16 14 15 16 16 15 14 15 14 13 14 13 13 13 13 12 13 12 11 11 11 11 10 9 9 9 8 7 7 7 6 6 5 4 4 4 4 4 4 4 3 4 5 4 3 3 2 3 3 3 2 2 3 6 4 5 6 5 4 5 5 6 6 7 6 5 6 6 5 10 13 16 18 20 16 16 13 7 6 6 8 11 11
16 17 16 15 15 15 16 15 12 15 15 14 14 14 13 13 12 12 12 12 12 12 11 11 11 10 10 9 8 7 7 6 6 5 4 4 3 4 4 4 4 3 2 3 3 3 4 4 3 3 4 5 3 4 2 4 6 6 6 3 2 4 5 5 6 6 5 5 6 6 6 11 16 18 19 19 18 14 15 7 8 11 16 16 11
18 18 16 16 15 15 17 16 13 13 14 14 14 14 13 12 13 13 13 13 12 11 12 11 11 11 9 9 8 7 6 5 5 5 5 4 3 3 3 4 4 4 3 3 3 3 3 3 3 3 5 5 3 2 6 5 6 8 6 6 6 4 9 6 6 6 5 6 6 7 9 15 18 18 17 18 17 14 10 7 12 14 15 18 12
17 17 16 16 16 14 13 13 14 13 13 13 14 14 13 13 14 13 12 12 12 12 12 11 10 10 10 9 9 7 6 5 5 5 5 5 4 4 4 4 4 4 4 4 4 4 3 2 3 4 3 3 3 4 5 7 5 9 8 9 10 7 8 7 7 4 5 6 7 8 11 17 19 16 16 16 17 10 7 16 17 14 16 12 8
18 16 17 15 15 17 16 16 14 15 12 13 13 14 14 15 13 13 13 13 13 12 11 11 11 11 9 10 8 7 6 5 5 4 4 4 4 3 3 2 2 2 3 4 3 2 2 3 2 3 4 4 3 4 3 4 8 10 9 11 11 8 10 12 7 3 4 6 10 15 16 17 19 12 11 15 13 8 10 16 18 14 11 7 9
16 16 17 15 16 15 17 17 16 15 13 13 13 13 14 14 13 13 13 13 13 12 12 12 12 10 10 11 10 8 7 6 5 5 4 4 4 4 4 3 3 3 3 2 2 3 3 2 2 3 4 4 4 3 4 4 5 7 7 10 11 10 10 11 10 5 10 14 16 17 18 17 12 6 4 9 10 8 10 15 16 13 7 10 8
19 18 16 15 17 16 17 16 16 15 14 13 14 13 13 13 13 13 13 13 13 12 11 10 10 10 9 9 9 7 6 5 4 4 3 3 2 2 3 4 4 4 3 2 2 2 3 2 2 2 3 4 4 4 3 3 4 5 5 6 6 6 9 8 7 6 9 10 14 14 14 14 8 8 7 9 11 13 7 9 9 7 7 10 8
16 16 15 15 16 19 17 16 15 15 14 14 15 15 16 14 14 14 13 13 12 12 11 11 11 9 8 9 7 7 7 5 5 5 4 4 4 3 5 6 6 6 3 3 4 2 2 3 3 3 3 3 4 3 3 3 3 4 5 5 5 5 6 6 6 7 9 11 10 13 10 5 5 4 5 4 6 8 6 8 10 8 7 10 11
18 17 14 15 16 16 17 17 16 14 14 14 15 15 17 15 14 14 13 13 12 11 11 11 10 9 8 8 7 7 6 5 5 7 8 7 2 6 6 5 5 4 4 4 4 5 4 3 3 3 3 2 3 3 1 1 2 3 3 5 6 6 6 7 8 8 8 9 8 7 5 6 5 5 6 5 7 8 6 7 9 10 7 9 9
16 14 15 15 15 17 17 17 15 15 15 15 15 15 15 16 15 15 14 13 12 11 11 11 9 8 8 8 7 7 6 6 6 7 7 7 11 11 7 5 4 3 6 8 8 4 2 3 3 4 3 3 2 1 1 2 5 7 8 8 9 10 10 9 10 13 7 6 7 5 5 5 5 5 6 5 7 7 7 7 8 10 9 8 9
17 16 16 15 15 15 16 17 16 15 15 15 15 15 15 15 14 15 14 13 12 10 10 9 9 8 8 8 7 6 6 5 6 7 6 7 6 7 11 8 9 7 6 7 8 6 4 2 3 3 3 6 6 4 3 4 7 9 10 11 11 12 12 14 10 7 7 5 6 4 5 4 4 5 5 5 5 6 6 6 7 9 8 8 8
Wind_Direction
138 135 128 131 129 127 125 121 112 109 117 126 111 112 117 113 125 106 90 91 82 78 66 124 129 122 297 291 214 266 350 329 230 208 102 214 203 220 199 289 42 32 56 41 32 48 40 46 49 28 53 63 28 41 40 20 13 355 327 338 333 348 333 329 318 326 311 293 276 275 268 240 244 239 239 238 245 250 231 223 228 222 228 224 230
136 137 130 130 121 113 110 125 131 125 121 110 127 142 138 122 105 89 86 72 95 115 167 143 108 99 32 317 312 140 111 229 28 271 244 156 324 43 7 87 273 61 50 54 40 27 43 38 44 43 12 27 21 21 344 25 20 2 354 348 348 340 321 320 303 15 310 320 324 315 291 263 235 224 242 241 245 249 252 252 254 244 232 222 195
125 129 132 136 126 111 107 123 108 109 120 129 136 115 100 84 84 80 79 88 98 125 124 63 53 81 168 207 279 325 190 261 225 181 166 109 74 322 106 40 41 36 49 55 43 34 29 27 19 31 23 358 11 29 15 19 20 6 6 2 334 330 305 294 320 108 307 325 300 282 319 332 341 32 301 264 253 246 243 247 242 241 243 217 185
126 124 129 133 128 118 114 114 105 111 121 133 128 115 107 97 99 110 102 80 96 91 60 73 102 22 64 60 57 304 155 257 342 1 47 61 83 62 55 38 38 44 40 46 48 32 32 27 10 25 26 24 14 25 28 19 15 20 15 6 358 349 350 336 330 6 159 344 330 350 300 280 302 72 334 303 250 227 226 236 234 247 250 226 176
124 131 135 130 125 116 111 107 105 111 118 121 121 121 121 124 125 115 111 83 70 92 110 91 107 66 41 36 58 13 359 357 3 273 186 100 71 47 45 53 38 36 31 36 33 31 27 30 21 25 40 26 24 36 28 13 13 20 17 13 16 5 353 341 342 353 345 165 289 333 322 320 1 323 339 294 354 358 247 233 237 247 246 242 223
137 147 141 127 116 119 119 110 110 118 117 113 107 103 105 98 109 109 105 93 101 96 105 109 99 87 93 59 46 41 353 229 226 141 91 75 67 56 36 35 51 34 30 39 36 27 32 30 24 15 33 21 28 41 29 18 12 16 15 12 10 13 356 353 354 351 347 346 31 148 188 264 308 320 314 314 326 281 314 308 268 238 239 235 241
134 140 138 132 130 131 126 125 126 119 111 108 101 104 113 121 117 97 89 95 88 100 113 116 103 108 79 80 233 137 232 191 149 96 84 89 83 69 54 34 41 45 35 30 33 31 26 32 30 24 27 25 24 36 28 24 17 21 12 15 13 5 9 7 359 341 341 358 2 349 352 313 283 316 320 315 317 325 329 316 317 300 246 244 236
144 142 142 136 129 127 126 127 127 117 112 106 105 109 106 104 97 84 80 80 92 100 101 86 104 125 144 190 197 199 202 118 79 70 75 76 68 63 66 52 41 47 44 32 27 22 14 26 34 37 34 28 27 30 25 20 18 15 16 19 19 18 12 13 352 348 347 342 350 346 347 343 353 343 337 328 311 312 318 326 321 335 320 264 241
147 143 137 136 131 121 117 118 116 116 122 116 113 116 116 114 109 103 97 87 93 102 96 68 124 162 146 188 200 174 141 129 103 75 65 62 73 67 60 64 61 51 42 32 26 23 18 16 23 29 27 20 23 25 23 24 11 10 9 13 13 20 15 3 358 349 350 347 348 348 345 353 346 344 336 345 340 330 316 329 326 326 316 307 326
142 138 133 130 129 120 116 118 117 110 106 105 110 112 109 105 102 99 90 78 67 66 114 143 174 157 156 136 125 124 93 68 74 77 67 79 81 72 69 65 67 64 50 36 23 28 24 19 19 27 24 16 17 16 24 23 12 4 10 21 16 11 12 8 358 347 359 351 357 352 352 347 348 345 347 346 340 336 322 325 327 327 327 327 323
140 136 131 130 126 121 124 121 117 114 113 112 115 116 114 107 99 91 87 81 69 59 56 52 45 63 55 58 83 83 74 94 103 99 100 82 93 87 79 71 63 58 54 40 30 25 28 19 20 22 29 22 21 17 20 23 9 344 29 32 13 19 24 7 353 12 3 4 6 4 352 350 344 338 340 341 333 329 330 323 323 323 327 321 325
143 140 136 129 123 123 126 125 125 123 120 117 115 114 110 104 95 91 85 77 68 61 56 61 55 67 79 80 69 64 82 80 95 103 94 101 117 127 94 76 68 52 45 46 35 35 26 19 28 31 40 32 30 18 24 24 0 358 39 26 24 27 12 3 5 18 10 12 5 351 350 349 341 334 335 333 337 338 333 324 322 329 319 312 316
147 145 141 134 135 141 135 128 128 127 126 122 117 113 109 104 98 94 86 80 79 73 62 65 76 68 81 90 89 92 101 101 79 73 64 54 28 52 77 73 61 66 48 43 38 36 23 33 41 30 30 27 26 20 24 27 7 5 45 31 25 22 351 348 26 16 17 14 355 354 357 337 329 337 344 344 342 338 330 323 324 326 313 315 318
144 144 146 141 144 135 131 130 130 132 127 119 117 114 110 108 109 107 104 99 91 88 85 77 64 66 65 66 65 60 54 48 44 63 56 47 43 56 65 71 80 66 61 52 23 45 49 49 40 36 33 31 26 24 19 27 15 12 34 32 26 15 347 351 29 18 22 7 1 4 353 338 344 360 357 355 353 345 338 335 329 323 322 318 318
138 149 151 145 142 134 136 140 143 139 128 122 117 112 111 115 116 116 115 105 101 99 95 84 66 48 57 63 64 64 62 62 60 50 54 66 57 61 61 75 82 83 85 143 40 45 58 48 47 34 33 31 29 28 26 21 20 27 34 39 23 9 355 7 29 15 22 11 9 6 348 352 360 8 358 358 351 349 336 335 337 332 326 322 320
152 152 150 147 139 137 141 150 150 134 129 127 123 125 125 121 118 115 109 107 104 101 91 81 69 65 54 54 61 79 83 90 85 77 70 54 68 81 81 75 80 93 107 96 66 36 40 52 44 44 34 34 30 25 31 22 28 26 24 46 24 10 7 25 25 11 28 12 11 3 4 347 6 6 359 355 352 346 338 336 340 336 331 325 325
152 154 150 145 140 146 150 147 133 125 127 127 128 124 112 108 110 109 107 105 107 101 93 89 83 70 65 63 63 63 72 81 95 95 83 73 76 75 79 98 105 89 90 72 67 63 51 51 51 44 41 35 28 22 29 25 26 25 21 40 20 5 17 29 20 8 36 4 12 343 353 347 16 2 358 357 347 339 338 341 345 343 341 324 323
151 148 146 142 144 146 139 132 132 132 129 131 130 123 118 116 118 120 120 119 119 113 107 103 101 101 96 91 87 112 123 100 89 96 105 108 100 96 106 95 106 123 75 61 68 65 52 52 53 44 45 39 32 22 29 29 26 25 20 31 17 7 26 28 24 13 20 7 359 352 7 17 19 1 1 355 345 355 352 350 346 345 340 329 325
149 144 139 138 139 142 141 140 142 137 134 129 126 124 119 118 120 123 124 125 123 121 126 128 126 123 122 120 122 115 99 98 105 102 99 94 87 95 100 95 69 55 62 71 62 61 59 53 46 51 38 42 33 24 23 29 27 25 26 22 12 19 27 24 16 11 24 6 5 2 16 24 20 359 6 359 356 6 359 350 348 340 338 335 329
149 138 137 139 140 142 143 144 139 135 129 135 139 113 113 120 123 123 123 122 123 120 114 112 110 117 122 135 131 120 112 118 126 129 125 123 120 101 85 75 76 66 59 60 59 54 56 58 45 38 43 39 35 27 17 29 22 24 31 18 17 21 22 27 11 22 23 13 11 2 17 20 20 9 11 2 4 2 359 349 344 342 337 338 334
142 142 143 143 144 142 144 142 137 137 135 132 119 122 125 129 124 123 124 125 120 117 114 109 113 120 120 115 118 124 125 116 106 98 94 84 82 87 82 78 75 73 68 62 63 63 52 48 49 44 40 33 36 26 18 23 18 22 32 25 25 20 19 31 14 23 24 14 12 7 28 22 20 9 7 4 1 357 353 346 346 341 336 335 334
138 143 139 141 144 146 144 142 142 138 131 126 123 127 140 128 126 131 126 124 124 121 124 128 130 120 118 132 112 99 95 95 100 103 93 94 91 87 85 75 71 67 65 64 63 60 64 58 47 46 40 37 29 29 16 17 18 11 32 25 29 21 18 28 13 26 22 16 11 27 26 24 19 9 11 2 1 355 351 348 346 343 337 333 332
140 142 141 143 146 150 149 146 143 140 138 137 140 145 136 123 129 130 127 122 121 121 122 123 117 115 110 98 104 110 109 102 93 86 94 94 93 96 96 92 79 72 70 74 67 60 55 56 54 47 41 34 29 22 17 11 15 7 24 29 32 24 20 27 17 28 30 20 28 25 24 25 15 9 10 4 1 354 348 345 343 340 334 330 329
139 139 139 143 150 150 149 147 144 144 145 145 141 143 145 137 131 125 119 115 116 120 121 120 119 118 121 115 111 110 99 95 96 90 91 90 86 75 75 81 87 86 77 68 67 63 58 53 51 48 40 34 28 23 17 8 11 357 12 27 33 18 34 28 26 37 24 27 29 28 31 23 16 9 11 2 356 350 345 342 336 333 330 328 326
141 143 147 151 154 153 151 146 145 148 147 141 142 147 116 111 114 118 116 117 116 117 119 120 120 119 121 115 101 96 101 99 97 92 84 84 82 84 84 80 70 67 68 77 78 74 66 58 52 45 39 34 28 23 16 7 2 353 351 34 25 17 28 31 36 28 29 23 32 33 32 27 14 17 5 357 352 347 345 340 334 331 329 327 324
147 149 153 155 156 153 149 147 148 147 145 145 143 133 113 115 118 117 118 119 116 116 120 122 124 125 115 107 111 109 102 100 99 96 96 91 88 81 78 79 82 83 77 67 65 64 65 62 54 48 41 35 30 24 17 5 357 353 341 359 27 25 32 36 23 28 22 23 41 28 39 26 17 14 1 351 348 346 341 335 332 330 330 328 324
148 149 152 155 155 151 151 149 145 141 145 142 136 133 126 124 124 123 120 117 118 122 124 129 132 119 119 117 110 105 99 96 91 87 81 79 78 80 82 80 87 94 92 84 79 76 70 66 61 51 44 35 31 26 16 4 357 352 349 334 40 20 36 42 24 28 25 29 32 32 42 25 17 10 1 352 351 344 338 333 332 331 329 327 323
149 152 157 161 153 149 152 151 144 145 146 141 138 132 130 131 127 123 119 118 122 126 129 127 125 114 112 111 109 105 102 95 93 92 92 92 85 77 75 75 79 80 84 90 89 84 78 71 64 59 48 39 31 27 16 4 357 353 345 338 348 44 22 38 19 31 30 33 36 33 32 21 13 16 8 3 355 341 336 331 332 331 328 325 319
157 158 160 156 154 154 154 148 144 148 146 138 132 132 131 129 126 121 123 125 127 130 131 127 120 115 111 106 105 107 108 101 95 89 83 83 91 99 100 93 78 66 65 76 79 74 73 69 64 57 52 41 31 21 16 360 350 349 346 339 333 357 42 33 23 30 29 36 42 33 21 10 21 15 33 11 348 341 337 333 333 330 326 319 312
160 159 155 151 146 146 147 144 152 153 148 139 136 135 132 130 128 129 131 132 134 134 130 127 121 117 119 116 112 109 105 104 104 102 100 98 91 82 79 76 73 70 68 65 77 81 75 68 59 52 51 46 31 23 2 8 12 358 336 330 325 336 41 30 29 32 33 43 41 30 7 11 29 16 30 2 341 336 339 337 329 322 314 309 307
154 144 139 149 148 147 151 154 152 151 147 141 142 136 131 129 131 134 136 138 137 134 129 131 127 125 122 120 114 108 109 106 101 98 94 90 84 79 78 77 73 70 67 75 78 81 80 74 66 55 45 41 33 7 1 7 1 7 356 331 317 332 18 40 30 29 41 39 45 16 350 22 21 24 18 354 341 341 339 336 324 313 302 304 314
156 151 153 154 150 155 160 157 154 152 149 144 137 134 132 133 136 139 141 138 135 133 134 129 126 125 123 121 119 113 104 96 95 95 93 88 91 92 86 81 84 82 77 72 71 83 93 87 76 63 47 36 28 11 5 5 4 357 359 336 302 347 358 50 2 18 52 49 46 3 3 35 17 23 10 354 345 338 337 334 329 326 324 319 320
158 159 161 156 155 160 156 153 157 150 145 140 127 133 134 139 146 141 136 132 136 134 131 130 133 129 121 111 102 100 99 96 92 92 97 105 103 100 96 96 89 86 80 73 68 63 78 95 84 66 48 34 25 9 6 8 4 358 349 341 301 15 348 32 2 348 65 48 58 17 26 29 8 7 1 354 346 339 334 330 338 338 333 334 330
161 161 159 156 155 155 155 152 146 145 150 133 127 130 138 148 138 132 135 138 136 136 134 129 121 117 113 109 110 109 109 113 120 125 123 110 106 105 112 109 106 94 86 81 72 67 75 87 86 76 57 36 27 3 9 8 4 359 348 343 273 3 326 31 9 351 31 57 51 38 31 7 358 349 3 357 342 336 332 326 343 335 333 333 330
163 161 160 160 158 154 153 153 149 147 140 135 131 135 144 139 128 135 138 139 140 133 124 120 119 120 119 121 125 128 131 133 127 119 111 108 107 111 103 101 98 95 93 92 81 64 46 74 87 85 67 46 24 8 11 8 6 0 350 333 332 349 335 26 30 341 23 70 60 58 45 7 355 344 354 352 343 332 324 316 323 331 335 336 329
162 159 159 157 161 154 155 150 137 134 143 143 133 137 140 136 142 143 140 136 132 129 127 127 128 130 133 135 130 125 123 120 118 116 113 107 103 101 103 103 96 91 90 85 84 76 57 57 90 94 86 58 32 15 12 9 4 1 349 331 4 339 357 335 49 341 64 76 74 80 54 30 356 340 339 344 341 326 315 314 323 327 339 340 335
144 140 146 149 151 153 151 140 138 141 146 144 136 138 140 146 148 144 138 136 137 135 134 136 138 137 133 130 130 130 126 122 118 116 112 114 116 111 105 104 102 101 93 88 90 79 63 52 55 94 101 85 48 18 18 8 2 0 356 337 9 359 356 353 346 345 94 88 103 70 52 29 353 340 335 338 335 331 316 320 321 329 339 337 335
143 144 147 153 153 148 142 145 146 148 141 138 145 145 146 151 144 141 142 144 141 138 140 141 136 133 131 132 130 126 125 122 119 111 109 106 104 106 103 99 104 113 112 119 113 103 94 75 60 48 60 110 87 33 29 10 2 357 356 348 10 4 359 356 345 326 80 135 86 63 52 30 357 339 331 336 336 339 323 321 321 327 340 341 338
149 151 149 152 149 146 143 146 146 144 143 151 152 149 152 146 144 147 147 145 143 141 143 139 137 136 133 132 130 125 121 117 114 117 117 118 115 110 111 110 112 113 121 125 122 123 128 123 114 111 29 76 111 70 38 20 5 355 358 348 13 9 3 352 339 324 327 43 134 95 53 22 353 332 329 334 335 338 323 313 317 329 338 340 337
160 153 145 147 149 147 150 150 150 148 155 162 153 154 147 147 151 150 148 144 142 143 138 135 134 134 131 124 119 118 118 120 121 119 117 112 122 126 135 141 140 129 122 118 109 102 114 139 156 147 99 61 99 99 54 47 12 356 359 351 13 13 4 345 334 328 335 348 7 359 5 355 342 335 330 328 330 327 324 302 301 327 331 331 325
159 150 152 152 155 155 154 155 153 155 151 149 145 150 151 155 152 150 145 142 141 136 136 136 133 131 129 126 123 119 118 117 116 117 119 114 102 96 86 75 74 84 95 110 131 141 134 134 144 147 131 88 48 115 97 57 27 0 350 7 350 12 359 343 334 334 332 347 348 351 347 331 341 338 326 323 324 319 313 296 287 309 307 301 307
154 152 156 155 156 157 152 157 167 144 146 155 156 152 156 154 152 145 141 139 138 137 136 132 133 133 128 125 121 119 120 118 117 121 119 109 118 128 126 119 112 112 121 136 140 144 148 158 165 142 123 122 65 51 120 71 35 5 332 317 330 334 334 330 335 329 329 347 342 333 326 328 331 328 319 312 313 311 304 293 280 283 298 313 316
153 159 161 154 152 162 162 153 143 150 158 160 154 154 155 152 149 142 140 141 137 136 136 138 136 130 126 124 125 128 123 126 128 126 123 123 121 110 109 122 139 146 144 138 140 145 146 136 124 108 121 140 143 95 77 67 33 13 343 321 310 297 316 321 334 316 345 340 328 328 322 322 319 318 306 303 304 309 297 301 295 295 295 307 307
152 159 154 155 154 158 150 146 153 161 159 156 154 155 154 152 144 143 141 138 138 140 142 136 130 129 129 132 134 135 131 130 136 140 140 147 150 160 173 168 173 159 156 155 149 148 138 138 129 114 104 106 126 143 84 70 38 13 3 356 357 333 327 339 328 319 5 331 324 319 315 312 312 310 296 295 309 315 325 338 327 307 299 300 333
151 152 152 162 163 155 149 157 163 160 158 155 157 155 153 147 143 144 140 143 143 141 135 131 135 136 136 139 138 135 141 144 146 145 140 142 153 158 138 160 124 124 141 139 128 109 115 129 126 114 110 100 82 61 64 59 37 9 7 359 349 357 354 344 337 334 349 328 316 308 309 313 305 297 289 319 324 318 340 344 329 325 328 359 348
151 155 168 170 151 152 153 158 159 161 155 157 156 156 150 144 144 143 145 146 143 136 135 143 142 143 146 144 142 146 147 149 157 158 159 172 176 177 158 161 139 138 127 116 99 107 100 82 113 114 105 104 84 67 38 22 17 1 360 347 345 348 349 337 328 330 344 330 325 317 308 306 299 335 333 344 329 323 349 347 332 337 357 355 357
162 162 168 160 157 154 160 161 158 157 156 155 151 153 144 145 147 147 149 147 138 137 142 143 143 148 151 146 145 147 151 162 170 159 157 155 152 121 160 159 151 149 122 106 123 120 105 95 71 82 101 94 88 75 40 18 10 355 349 343 343 341 338 340 337 337 338 333 318 315 301 288 291 338 358 347 337 331 340 356 340 344 5 0 356
157 159 167 162 155 157 163 159 154 153 153 152 154 152 150 150 149 152 148 140 137 145 148 148 150 151 149 146 148 132 145 162 169 169 170 166 144 103 64 44 33 21 14 109 110 85 82 87 78 40 53 76 80 76 54 13 350 343 331 329 333 330 331 333 324 333 329 316 310 300 298 337 346 3 344 359 346 337 341 355 341 338 2 6 349
156 165 169 158 158 161 159 154 151 152 152 154 154 152 154 153 155 152 144 141 144 149 148 149 152 153 146 146 139 151 173 165 150 74 55 31 26 103 92 75 42 40 60 34 34 62 36 13 74 53 35 54 57 54 50 130 276 279 287 310 322 324 317 313 305 326 321 309 309 303 330 336 352 360 345 350 344 340 340 348 346 349 354 2 355
158 163 165 165 166 160 156 153 151 153 154 154 153 154 155 157 154 149 145 145 148 151 149 155 155 149 149 144 150 176 177 165 129 109 91 67 43 56 94 121 97 90 81 73 79 90 76 359 21 81 52 47 42 56 147 285 287 295 290 278 274 280 283 281 302 316 309 295 301 301 333 336 339 3 344 350 340 339 338 345 355 345 345 4 355
163 164 167 168 162 160 155 153 155 154 152 152 154 157 158 157 150 149 148 148 154 152 154 155 152 152 148 148 163 186 162 151 122 121 126 118 105 53 31 77 123 143 120 102 105 121 99 64 86 110 107 121 136 183 245 269 291 296 299 301 303 301 305 305 319 354 330 321 293 325 333 338 339 357 347 344 341 340 342 342 352 348 342 354 355